DGRLG EDDN-EDDC

Flight info

Callsign DGRLG
Flight time 1h 1m
Altitude 17000
Route ERETO1G ERETO Z715 ABKIS Q240 DRN
Aircraft DA42/L-BDGLORVWY/S

Departure

Time 2026-05-08 15:27
Airport Nuremberg Airport (EDDN)

Arrival

Time 2026-05-08 16:28
Airport Dresden Airport (EDDC)
Time Latitude Longitude Altitude Speed Heading
2026-05-08 15:02 49.49460 11.06873 1021 ft 0 kts 278°
2026-05-08 15:21 49.49461 11.06870 1021 ft 2 kts 319°
2026-05-08 15:22 49.49480 11.06916 1021 ft 8 kts
2026-05-08 15:22 49.49525 11.06941 1021 ft 6 kts 101°
2026-05-08 15:22 49.49517 11.07012 1021 ft 7 kts 94°
2026-05-08 15:22 49.49508 11.07096 1021 ft 8 kts 101°
2026-05-08 15:23 49.49535 11.07196 1021 ft 15 kts
2026-05-08 15:23 49.49631 11.07225 1019 ft 13 kts 39°
2026-05-08 15:23 49.49628 11.07346 1020 ft 11 kts 99°
2026-05-08 15:23 49.49611 11.07512 1019 ft 21 kts 100°
2026-05-08 15:24 49.49592 11.07711 1021 ft 17 kts 95°
2026-05-08 15:24 49.49672 11.07768 1021 ft 13 kts 339°
2026-05-08 15:24 49.49727 11.07724 1020 ft 5 kts 337°
2026-05-08 15:24 49.49749 11.07709 1020 ft 4 kts 335°
2026-05-08 15:25 49.49773 11.07691 1020 ft 1 kts 333°
2026-05-08 15:25 49.49774 11.07691 1020 ft 0 kts 333°
2026-05-08 15:25 49.49777 11.07688 1020 ft 3 kts 332°
2026-05-08 15:25 49.49800 11.07669 1020 ft 9 kts 333°
2026-05-08 15:26 49.49881 11.07601 1020 ft 13 kts 316°
2026-05-08 15:26 49.49899 11.07526 1020 ft 3 kts 278°
2026-05-08 15:26 49.49911 11.07399 1019 ft 42 kts 277°
2026-05-08 15:26 49.49984 11.06639 1019 ft 97 kts 281°
2026-05-08 15:27 49.50099 11.05528 1245 ft 110 kts 281°
2026-05-08 15:27 49.50220 11.04376 1635 ft 108 kts 281°
2026-05-08 15:27 49.50320 11.03214 2001 ft 109 kts 283°
2026-05-08 15:27 49.50428 11.02066 2347 ft 110 kts 281°
2026-05-08 15:28 49.50543 11.00894 2696 ft 110 kts 283°
2026-05-08 15:28 49.50658 10.99720 3041 ft 111 kts 283°
2026-05-08 15:28 49.50774 10.98547 3405 ft 112 kts 283°
2026-05-08 15:28 49.50890 10.97365 3754 ft 112 kts 280°
2026-05-08 15:29 49.51006 10.96177 4084 ft 112 kts 280°
2026-05-08 15:29 49.51123 10.94985 4419 ft 113 kts 279°
2026-05-08 15:29 49.51254 10.93792 4755 ft 113 kts 287°
2026-05-08 15:29 49.51700 10.92817 5088 ft 114 kts 324°
2026-05-08 15:30 49.52450 10.92462 5407 ft 115 kts 359°
2026-05-08 15:30 49.53259 10.92472 5725 ft 117 kts
2026-05-08 15:30 49.54077 10.92499 6058 ft 118 kts
2026-05-08 15:30 49.54906 10.92525 6390 ft 119 kts
2026-05-08 15:31 49.55737 10.92549 6706 ft 121 kts
2026-05-08 15:31 49.56300 10.92566 6931 ft 122 kts
2026-05-08 15:31 49.57425 10.92598 7400 ft 121 kts 360°
2026-05-08 15:31 49.58215 10.92619 7709 ft 121 kts 360°
2026-05-08 15:32 49.58434 10.92625 7801 ft 121 kts 359°
2026-05-08 15:32 49.59277 10.92648 8135 ft 121 kts 358°
2026-05-08 15:32 49.60126 10.92672 8463 ft 122 kts 359°
2026-05-08 15:33 49.60975 10.92696 8807 ft 122 kts 358°
2026-05-08 15:33 49.61537 10.92711 9028 ft 122 kts 357°
2026-05-08 15:33 49.62390 10.92733 9365 ft 123 kts 357°
2026-05-08 15:33 49.63244 10.92754 9703 ft 123 kts 358°
2026-05-08 15:34 49.64102 10.92775 10034 ft 124 kts 358°
2026-05-08 15:34 49.64964 10.92797 10333 ft 124 kts 358°
2026-05-08 15:34 49.65829 10.92821 10636 ft 125 kts 357°
2026-05-08 15:34 49.66703 10.92843 10943 ft 126 kts 357°
2026-05-08 15:35 49.67578 10.92865 11257 ft 126 kts 357°
2026-05-08 15:35 49.68458 10.92887 11576 ft 127 kts 357°
2026-05-08 15:35 49.69342 10.92909 11891 ft 128 kts 357°
2026-05-08 15:35 49.70224 10.93140 12208 ft 132 kts 20°
2026-05-08 15:36 49.70982 10.93967 12524 ft 135 kts 37°
2026-05-08 15:36 49.71700 10.94915 12834 ft 137 kts 38°
2026-05-08 15:36 49.72424 10.95878 13162 ft 138 kts 38°
2026-05-08 15:36 49.73153 10.96845 13487 ft 138 kts 38°
2026-05-08 15:37 49.73887 10.97818 13807 ft 140 kts 38°
2026-05-08 15:37 49.74627 10.98797 14102 ft 140 kts 37°
2026-05-08 15:37 49.75371 10.99781 14393 ft 141 kts 37°
2026-05-08 15:37 49.76120 11.00773 14685 ft 142 kts 37°
2026-05-08 15:38 49.76870 11.01767 14991 ft 143 kts 37°
2026-05-08 15:38 49.77625 11.02767 15284 ft 143 kts 37°
2026-05-08 15:38 49.78386 11.03776 15572 ft 144 kts 37°
2026-05-08 15:38 49.79147 11.04784 15871 ft 145 kts 37°
2026-05-08 15:39 49.79914 11.05801 16161 ft 146 kts 37°
2026-05-08 15:39 49.80683 11.06823 16445 ft 146 kts 36°
2026-05-08 15:39 49.81456 11.07849 16728 ft 147 kts 36°
2026-05-08 15:39 49.82234 11.08882 17011 ft 148 kts 36°
2026-05-08 15:40 49.83041 11.09953 17108 ft 162 kts 37°
2026-05-08 15:40 49.83892 11.11221 17113 ft 180 kts 51°
2026-05-08 15:40 49.84517 11.12977 17111 ft 193 kts 62°
2026-05-08 15:40 49.85104 11.14886 17109 ft 199 kts 63°
2026-05-08 15:41 49.85695 11.16816 17114 ft 203 kts 63°
2026-05-08 15:41 49.86308 11.18802 17112 ft 206 kts 62°
2026-05-08 15:41 49.86931 11.20812 17111 ft 208 kts 62°
2026-05-08 15:41 49.87557 11.22835 17111 ft 209 kts 62°
2026-05-08 15:42 49.88185 11.24866 17112 ft 210 kts 63°
2026-05-08 15:42 49.88814 11.26903 17110 ft 210 kts 63°
2026-05-08 15:42 49.89446 11.28948 17110 ft 210 kts 63°
2026-05-08 15:42 49.90074 11.30987 17112 ft 210 kts 63°
2026-05-08 15:43 49.90704 11.33029 17110 ft 210 kts 63°
2026-05-08 15:43 49.91333 11.35073 17113 ft 210 kts 63°
2026-05-08 15:43 49.91964 11.37122 17103 ft 210 kts 63°
2026-05-08 15:43 49.92592 11.39167 17108 ft 210 kts 63°
2026-05-08 15:44 49.93324 11.41118 17096 ft 208 kts 48°
2026-05-08 15:44 49.94316 11.42739 17100 ft 207 kts 42°
2026-05-08 15:44 49.95330 11.44314 17102 ft 206 kts 41°
2026-05-08 15:44 49.96345 11.45889 17110 ft 206 kts 42°
2026-05-08 15:45 49.97344 11.47449 17104 ft 207 kts 42°
2026-05-08 15:45 49.98370 11.49055 17111 ft 207 kts 42°
2026-05-08 15:45 49.99383 11.50641 17110 ft 207 kts 42°
2026-05-08 15:45 50.00396 11.52228 17105 ft 207 kts 42°
2026-05-08 15:46 50.01410 11.53819 17109 ft 207 kts 42°
2026-05-08 15:46 50.02426 11.55412 17114 ft 207 kts 42°
2026-05-08 15:46 50.03441 11.57005 17120 ft 208 kts 42°
2026-05-08 15:46 50.04454 11.58598 17120 ft 207 kts 42°
2026-05-08 15:47 50.05466 11.60189 17117 ft 207 kts 42°
2026-05-08 15:47 50.06481 11.61785 17118 ft 207 kts 42°
2026-05-08 15:47 50.07484 11.63401 17120 ft 208 kts 46°
2026-05-08 15:47 50.08465 11.65049 17126 ft 207 kts 43°
2026-05-08 15:48 50.10452 11.68301 17127 ft 207 kts 44°
2026-05-08 15:48 50.11435 11.69936 17132 ft 207 kts 44°
2026-05-08 15:48 50.12421 11.71577 17126 ft 207 kts 44°
2026-05-08 15:49 50.13403 11.73211 17134 ft 207 kts 44°
2026-05-08 15:49 50.14387 11.74850 17132 ft 207 kts 44°
2026-05-08 15:49 50.15371 11.76488 17129 ft 207 kts 44°
2026-05-08 15:49 50.16353 11.78126 17129 ft 207 kts 44°
2026-05-08 15:50 50.17336 11.79764 17133 ft 207 kts 44°
2026-05-08 15:50 50.18319 11.81406 17133 ft 207 kts 44°
2026-05-08 15:50 50.19196 11.83197 17127 ft 209 kts 55°
2026-05-08 15:50 50.19962 11.85122 17132 ft 209 kts 56°
2026-05-08 15:51 50.20717 11.87054 17133 ft 209 kts 56°
2026-05-08 15:51 50.21474 11.88986 17133 ft 209 kts 56°
2026-05-08 15:51 50.22236 11.90922 17133 ft 209 kts 56°
2026-05-08 15:51 50.22996 11.92853 17132 ft 209 kts 56°
2026-05-08 15:52 50.23754 11.94780 17135 ft 209 kts 56°
2026-05-08 15:52 50.24506 11.96693 17134 ft 209 kts 56°
2026-05-08 15:52 50.25275 11.98655 17135 ft 209 kts 56°
2026-05-08 15:52 50.26024 12.00564 17142 ft 209 kts 56°
2026-05-08 15:53 50.26820 12.02457 17139 ft 208 kts 52°
2026-05-08 15:53 50.27637 12.04320 17136 ft 208 kts 53°
2026-05-08 15:53 50.28461 12.06217 17137 ft 208 kts 53°
2026-05-08 15:53 50.29278 12.08084 17137 ft 208 kts 53°
2026-05-08 15:54 50.30090 12.09931 17138 ft 209 kts 53°
2026-05-08 15:54 50.30921 12.11823 17138 ft 208 kts 53°
2026-05-08 15:54 50.31729 12.13665 17136 ft 209 kts 53°
2026-05-08 15:54 50.32549 12.15539 17139 ft 209 kts 53°
2026-05-08 15:55 50.33371 12.17416 17141 ft 209 kts 53°
2026-05-08 15:55 50.34924 12.21261 17150 ft 210 kts 59°
2026-05-08 15:55 50.35607 12.23278 17147 ft 210 kts 60°
2026-05-08 15:56 50.36287 12.25304 17143 ft 210 kts 60°
2026-05-08 15:56 50.36967 12.27325 17145 ft 210 kts 60°
2026-05-08 15:56 50.37647 12.29345 17139 ft 209 kts 60°
2026-05-08 15:56 50.38326 12.31362 17146 ft 210 kts 60°
2026-05-08 15:57 50.39007 12.33386 17139 ft 210 kts 60°
2026-05-08 15:57 50.39685 12.35404 17136 ft 210 kts 60°
2026-05-08 15:57 50.40363 12.37424 17144 ft 209 kts 60°
2026-05-08 15:57 50.41041 12.39447 17146 ft 209 kts 60°
2026-05-08 15:58 50.41717 12.41463 17148 ft 209 kts 60°
2026-05-08 15:58 50.42393 12.43483 17149 ft 210 kts 60°
2026-05-08 15:58 50.43072 12.45511 17148 ft 210 kts 60°
2026-05-08 15:58 50.43749 12.47537 17149 ft 210 kts 60°
2026-05-08 15:59 50.44425 12.49562 17140 ft 210 kts 60°
2026-05-08 15:59 50.45102 12.51589 17142 ft 210 kts 60°
2026-05-08 15:59 50.45780 12.53622 17141 ft 210 kts 60°
2026-05-08 15:59 50.46457 12.55652 17146 ft 210 kts 60°
2026-05-08 16:00 50.47134 12.57685 17140 ft 210 kts 60°
2026-05-08 16:00 50.47810 12.59717 17146 ft 210 kts 60°
2026-05-08 16:00 50.48484 12.61747 17144 ft 210 kts 60°
2026-05-08 16:00 50.49159 12.63779 17147 ft 209 kts 60°
2026-05-08 16:01 50.49832 12.65806 17127 ft 211 kts 60°
2026-05-08 16:01 50.50523 12.67888 16923 ft 219 kts 60°
2026-05-08 16:01 50.51239 12.70049 16644 ft 227 kts 60°
2026-05-08 16:01 50.51964 12.72242 16348 ft 231 kts 60°
2026-05-08 16:02 50.52711 12.74503 16038 ft 234 kts 60°
2026-05-08 16:02 50.53475 12.76813 15721 ft 236 kts 61°
2026-05-08 16:02 50.54223 12.79077 15410 ft 237 kts 61°
2026-05-08 16:02 50.54982 12.81378 15100 ft 237 kts 61°
2026-05-08 16:03 50.55742 12.83685 14786 ft 238 kts 61°
2026-05-08 16:03 50.56500 12.85987 14472 ft 237 kts 61°
2026-05-08 16:03 50.57267 12.88320 14160 ft 236 kts 61°
2026-05-08 16:03 50.58011 12.90582 13836 ft 236 kts 61°
2026-05-08 16:04 50.58761 12.92866 13508 ft 234 kts 61°
2026-05-08 16:04 50.59503 12.95129 13199 ft 232 kts 61°
2026-05-08 16:04 50.60239 12.97374 12888 ft 230 kts 61°
2026-05-08 16:04 50.60969 12.99600 12597 ft 228 kts 61°
2026-05-08 16:05 50.61694 13.01812 12300 ft 227 kts 60°
2026-05-08 16:05 50.62508 13.03914 12001 ft 224 kts 48°
2026-05-08 16:05 50.63658 13.05511 11704 ft 219 kts 30°
2026-05-08 16:05 50.65039 13.06443 11411 ft 214 kts 11°
2026-05-08 16:06 50.66481 13.06973 11132 ft 212 kts 10°
2026-05-08 16:06 50.67917 13.07473 10852 ft 211 kts 10°
2026-05-08 16:06 50.69346 13.07972 10572 ft 210 kts 10°
2026-05-08 16:06 50.70766 13.08473 10302 ft 209 kts 10°
2026-05-08 16:07 50.72179 13.08974 10021 ft 207 kts 10°
2026-05-08 16:07 50.73582 13.09471 9732 ft 206 kts 10°
2026-05-08 16:07 50.74977 13.09965 9455 ft 205 kts 10°
2026-05-08 16:07 50.76366 13.10459 9187 ft 204 kts 10°
2026-05-08 16:08 50.77750 13.10950 8982 ft 202 kts 10°
2026-05-08 16:08 50.79116 13.11436 8805 ft 201 kts 10°
2026-05-08 16:08 50.80475 13.11918 8623 ft 200 kts 11°
2026-05-08 16:08 50.81830 13.12399 8443 ft 199 kts 11°
2026-05-08 16:09 50.83181 13.12881 8261 ft 199 kts
2026-05-08 16:09 50.84074 13.13199 8143 ft 199 kts 11°
2026-05-08 16:09 50.85876 13.13842 7900 ft 198 kts 10°
2026-05-08 16:09 50.87223 13.14322 7719 ft 198 kts 11°
2026-05-08 16:10 50.88568 13.14802 7544 ft 198 kts 11°
2026-05-08 16:10 50.89916 13.15283 7364 ft 199 kts 11°
2026-05-08 16:10 50.91267 13.15765 7181 ft 199 kts 10°
2026-05-08 16:10 50.92618 13.16248 7002 ft 199 kts 11°
2026-05-08 16:11 50.93954 13.16727 6821 ft 199 kts 11°
2026-05-08 16:11 50.95308 13.17212 6638 ft 199 kts 11°
2026-05-08 16:11 50.96660 13.17695 6451 ft 200 kts 11°
2026-05-08 16:11 50.98020 13.18182 6265 ft 200 kts 11°
2026-05-08 16:12 50.99379 13.18669 6081 ft 200 kts 11°
2026-05-08 16:12 51.00738 13.19153 5900 ft 200 kts 11°
2026-05-08 16:12 51.02097 13.19661 5712 ft 201 kts 12°
2026-05-08 16:12 51.03468 13.20103 5524 ft 202 kts
2026-05-08 16:13 51.04834 13.20601 5329 ft 202 kts 17°
2026-05-08 16:13 51.06068 13.21642 5175 ft 199 kts 39°
2026-05-08 16:13 51.06939 13.23234 5168 ft 186 kts 59°
2026-05-08 16:13 51.07493 13.25053 5164 ft 180 kts 65°
2026-05-08 16:14 51.08005 13.26845 5164 ft 177 kts 65°
2026-05-08 16:14 51.08515 13.28611 5164 ft 175 kts 65°
2026-05-08 16:14 51.09023 13.30360 5165 ft 174 kts 65°
2026-05-08 16:14 51.09529 13.32102 5163 ft 173 kts 65°
2026-05-08 16:15 51.10035 13.33844 5162 ft 173 kts 65°
2026-05-08 16:15 51.10394 13.35657 5158 ft 173 kts 84°
2026-05-08 16:15 51.10261 13.37545 5157 ft 173 kts 108°
2026-05-08 16:15 51.09662 13.39199 5156 ft 173 kts 126°
2026-05-08 16:16 51.08939 13.40726 5158 ft 173 kts 127°
2026-05-08 16:16 51.08202 13.42246 5154 ft 173 kts 130°
2026-05-08 16:16 51.07241 13.43391 5151 ft 174 kts 155°
2026-05-08 16:16 51.06067 13.43771 5151 ft 174 kts 181°
2026-05-08 16:17 51.04901 13.43316 5152 ft 174 kts 206°
2026-05-08 16:17 51.04242 13.42598 5154 ft 174 kts 219°
2026-05-08 16:17 51.03013 13.40938 5152 ft 170 kts 222°
2026-05-08 16:17 51.02150 13.39753 5153 ft 159 kts 222°
2026-05-08 16:18 51.01321 13.38622 5065 ft 157 kts 221°
2026-05-08 16:18 51.00502 13.37508 5003 ft 155 kts 221°
2026-05-08 16:18 50.99695 13.36415 5002 ft 150 kts 222°
2026-05-08 16:18 50.98896 13.35330 4999 ft 148 kts 222°
2026-05-08 16:19 50.98128 13.34288 4999 ft 148 kts 221°
2026-05-08 16:19 50.97216 13.33456 4997 ft 159 kts 197°
2026-05-08 16:19 50.96077 13.33458 4922 ft 172 kts 165°
2026-05-08 16:19 50.95058 13.34500 4799 ft 180 kts 134°
2026-05-08 16:20 50.94220 13.36004 4658 ft 184 kts 130°
2026-05-08 16:20 50.93396 13.37565 4521 ft 186 kts 130°
2026-05-08 16:20 50.92557 13.39136 4373 ft 187 kts 130°
2026-05-08 16:20 50.91716 13.40710 4235 ft 188 kts 127°
2026-05-08 16:21 50.91147 13.42547 4096 ft 186 kts 104°
2026-05-08 16:21 50.91078 13.44568 3994 ft 182 kts 81°
2026-05-08 16:21 50.91489 13.46418 3990 ft 176 kts 58°
2026-05-08 16:21 50.92275 13.47855 3990 ft 172 kts 40°
2026-05-08 16:22 50.92875 13.48697 3991 ft 170 kts 40°
2026-05-08 16:22 50.93754 13.49939 3993 ft 170 kts 40°
2026-05-08 16:22 50.94622 13.51164 3994 ft 169 kts 41°
2026-05-08 16:22 50.95534 13.52346 3995 ft 169 kts 38°
2026-05-08 16:23 50.96446 13.53521 3995 ft 169 kts 38°
2026-05-08 16:23 50.97347 13.54725 3996 ft 169 kts 40°
2026-05-08 16:23 50.98247 13.55965 3996 ft 169 kts 40°
2026-05-08 16:23 50.99124 13.57169 3995 ft 169 kts 40°
2026-05-08 16:24 51.00017 13.58388 3957 ft 171 kts 40°
2026-05-08 16:24 51.00933 13.59642 3763 ft 178 kts 40°
2026-05-08 16:24 51.01884 13.60945 3525 ft 183 kts 41°
2026-05-08 16:24 51.02860 13.62285 3270 ft 186 kts 41°
2026-05-08 16:25 51.03843 13.63628 3016 ft 187 kts 41°
2026-05-08 16:25 51.04831 13.64985 2757 ft 187 kts 41°
2026-05-08 16:25 51.05817 13.66335 2497 ft 185 kts 41°
2026-05-08 16:25 51.06766 13.67639 2251 ft 176 kts 41°
2026-05-08 16:26 51.07666 13.68872 2014 ft 164 kts 41°
2026-05-08 16:26 51.08492 13.70003 1796 ft 148 kts 41°
2026-05-08 16:26 51.09199 13.70978 1604 ft 116 kts 41°
2026-05-08 16:26 51.09704 13.71673 1445 ft 80 kts 42°
2026-05-08 16:27 51.10099 13.72210 1378 ft 78 kts 40°
2026-05-08 16:27 51.10558 13.72836 1255 ft 92 kts 41°
2026-05-08 16:27 51.11048 13.73509 1124 ft 93 kts 39°
2026-05-08 16:27 51.11530 13.74184 1005 ft 93 kts 40°
2026-05-08 16:28 51.12022 13.74854 887 ft 94 kts 41°
2026-05-08 16:28 51.12499 13.75513 751 ft 86 kts 41°
2026-05-08 16:28 51.12880 13.76037 704 ft 53 kts 41°
2026-05-08 16:28 51.13089 13.76325 707 ft 30 kts 40°
2026-05-08 16:29 51.13237 13.76527 707 ft 28 kts 41°
2026-05-08 16:29 51.13365 13.76714 705 ft 21 kts 70°
2026-05-08 16:29 51.13310 13.76851 705 ft 9 kts 130°
2026-05-08 16:29 51.13302 13.76868 703 ft 0 kts 128°
2026-05-08 16:30 51.13288 13.76892 700 ft 7 kts 134°
2026-05-08 16:31 51.13256 13.76953 705 ft 7 kts 138°
2026-05-08 16:31 51.13225 13.76989 701 ft 5 kts 212°
2026-05-08 16:31 51.13170 13.76914 705 ft 15 kts 220°
2026-05-08 16:31 51.13089 13.76803 705 ft 17 kts 221°
2026-05-08 16:32 51.12992 13.76671 705 ft 18 kts 220°
2026-05-08 16:32 51.12898 13.76540 705 ft 18 kts 222°
2026-05-08 16:32 51.12806 13.76415 705 ft 17 kts 220°
2026-05-08 16:32 51.12715 13.76289 705 ft 17 kts 221°
2026-05-08 16:33 51.12626 13.76165 705 ft 17 kts 220°
2026-05-08 16:33 51.12537 13.76045 697 ft 17 kts 220°
2026-05-08 16:33 51.12452 13.75927 705 ft 14 kts 218°
2026-05-08 16:33 51.12392 13.76008 705 ft 11 kts 137°
2026-05-08 16:34 51.12330 13.75999 704 ft 11 kts 222°
2026-05-08 16:34 51.12310 13.75977 701 ft 0 kts 150°
2026-05-08 16:34 51.12316 13.75999 702 ft 3 kts 92°
2026-05-08 16:34 51.12301 13.76004 705 ft 3 kts 222°
2026-05-08 16:35 51.12300 13.75997 705 ft 0 kts 307°